Regional Weather Roundup
Issued by NWS Northern Indiana

Home | Current Version | Previous Version | Text Only | Print | Product List | Glossary Off
Versions: 1 2 3 4 5 6 7 8 9 10 11 12 13 14 15 16 17 18 19 20 21 22 23 24 25 26 27 28 29 30 31 32 33 34 35 36 37 38 39 40 41 42 43 44 45 46 47 48 49 50

000
ASUS43 KIWX 200209
RWRIWX

KIWX WEATHER ROUNDUP
NATIONAL WEATHER SERVICE NORTHERN INDIANA
1000 PM EDT THU APR 19 2018

NOTE: "FAIR" INDICATES FEW OR NO CLOUDS BELOW 12,000 FEET WITH NO
SIGNIFICANT WEATHER AND/OR OBSTRUCTIONS TO VISIBILITY.

* THESE STATIONS ARE NOT UNDER NWS QUALITY CONTROL. THEY ALSO MAY NOT
  REPORT WEATHER SUCH AS PRECIPITATION OR FOG.

INZ001>027-200300-
NORTHERN INDIANA

CITY           SKY/WX    TMP DP  RH WIND       PRES   REMARKS
GARY*          CLEAR     39  30  70 N7        30.43R WCI  34
VALPARAISO     FAIR      41  21  44 N3        30.41S
MICHIGAN CITY* FAIR      37  25  60 NW5       30.41S WCI  34
LAPORTE*       FAIR      39  18  43 N10       30.40R WCI  32
KNOX*          FAIR      34  19  55 NW6       30.40S WCI  29
SOUTH BEND     FAIR      36  20  52 N9        30.39S WCI  29
GOSHEN         FAIR      38  20  48 NW14      30.36S WCI  30
MONTICELLO*    FAIR      38  15  39 N9        30.39S WCI  31
LOGANSPORT*    FAIR      36  19  51 N12       30.39S WCI  27
ROCHESTER*     FAIR      39  21  48 NW10      30.39R WCI  32
WARSAW*        FAIR      36  21  55 NW9       30.37R WCI  29
ANGOLA*        FAIR      37  28  70 NW8       30.33R WCI  31
FORT WAYNE     FAIR      41  29  62 NW13      30.34R
HUNTINGTON*    FAIR      38  27  64 NW9       30.35R WCI  31
PERU/GRISSOM   FAIR      38  20  47 NW12      30.36R WCI  31
MARION*        FAIR      40  24  53 N9G18     30.36R WCI  34

$$
INZ028>050-200300-
CENTRAL INDIANA

CITY           SKY/WX    TMP DP  RH WIND       PRES   REMARKS
LAFAYETTE      FAIR      40  18  41 N7        30.40R WCI  35
KOKOMO*        FAIR      39  23  52 NW12      30.38R WCI  32
MUNCIE*        FAIR      43  27  53 NW14      30.34R
INDIANAPOLIS   FAIR      45  17  32 N14       30.37R

$$
MIZ043>046-050>051-056>058-064>065-071>073-077>080-200300-
SOUTHWEST LOWER MICHIGAN

CITY           SKY/WX    TMP DP  RH WIND       PRES   REMARKS
BATTLE CREEK   FAIR      43  19  38 NW13      30.35R
BENTON HARBOR  FAIR      36  27  69 CALM      30.40R
COLDWATER*     FAIR      40  28  64 NW9       30.33R WCI  33
HILLSDALE*     FAIR      41  30  65 W10       30.30R
HOLLAND        FAIR      39  22  50 NW5       30.39R WCI  36
GRAND RAPIDS   FAIR      42  18  37 NW9       30.36R
KALAMAZOO      FAIR      40  22  48 NW10      30.36R WCI  33
STURGIS*       FAIR      39  26  59 NW10G16   30.34S WCI  32
THREE RIVERS*  FAIR      39  25  57 NW7       30.36S WCI  34

$$
OHZ001>008-015>018-024>025-200300-
NORTHWEST OHIO

CITY           SKY/WX    TMP DP  RH WIND       PRES   REMARKS
DEFIANCE       FAIR      43  32  65 NW10      30.32R
FINDLAY        FAIR      46  30  53 NW10      30.27R
TOLEDO EXPRESS FAIR      46  20  35 N10       30.29R
TOLEDO METCALF FAIR      41  30  65 E6        30.31R
LIMA           FAIR      44  33  65 NW15      30.29R

$$
AND FOR LAKE MICHIGAN COASTAL AND OPEN LAKE BUOY OBSERVATIONS

STATION/POSITION TIME  TEMP    WIND        PRES    VSBY  WAVE
                       AIR SEA DIR/SP/G                  HT/PER
                 (UTC) (F)     (DEG/KT/KT) (MB)    (MI)  (FT/S)
CALUMET HARBOR   0148   38     340/  5/  5 1029.4R
MICHIGAN CITY    0140   40     260/  4/  8   N/A
BURNS HARBOR     0140   41      10/  5/  6 1030.1S
SAINT JOSEPH     0200   39      40/  4/  7 1029.8

$$
&&




USA.gov is the U.S. government's official web portal to all federal, state and local government web resources and services.